ISS596 LIPX-LIRN

Flight info

Callsign ISS596
Flight time 0h 55m
Altitude 35000
Route TUVDE Y922 KOPER/N0459F350 DCT LUMAV DCT EVULI DCT ERIKA
Aircraft B38M/M-SDE1FGHILORVWXY/HB1

Departure

Time 2026-05-06 13:00
Airport Verona Villafranca Valerio Catullo Airport (LIPX)

Arrival

Time 2026-05-06 13:55
Airport Naples International Airport (LIRN)
Time Latitude Longitude Altitude Speed Heading
2026-05-06 12:30 45.40302 10.90591 245 ft 0 kts 134°
2026-05-06 12:32 45.40303 10.90591 245 ft 0 kts 134°
2026-05-06 12:37 45.40303 10.90590 245 ft 0 kts 134°
2026-05-06 12:45 45.40304 10.90590 245 ft 0 kts 134°
2026-05-06 12:47 45.40304 10.90589 245 ft 0 kts 134°
2026-05-06 12:48 45.40315 10.90575 245 ft 4 kts 142°
2026-05-06 12:48 45.40337 10.90558 245 ft 4 kts 174°
2026-05-06 12:48 45.40360 10.90566 245 ft 3 kts 223°
2026-05-06 12:49 45.40363 10.90570 245 ft 0 kts 226°
2026-05-06 12:52 45.40354 10.90557 245 ft 3 kts 225°
2026-05-06 12:52 45.40330 10.90522 245 ft 6 kts 225°
2026-05-06 12:52 45.40293 10.90468 245 ft 9 kts 225°
2026-05-06 12:52 45.40263 10.90396 245 ft 8 kts 280°
2026-05-06 12:53 45.40293 10.90331 244 ft 9 kts 311°
2026-05-06 12:53 45.40329 10.90254 245 ft 10 kts 278°
2026-05-06 12:53 45.40319 10.90161 246 ft 10 kts 255°
2026-05-06 12:53 45.40295 10.90032 248 ft 15 kts 256°
2026-05-06 12:54 45.40322 10.89902 250 ft 14 kts 315°
2026-05-06 12:54 45.40394 10.89800 250 ft 12 kts 315°
2026-05-06 12:54 45.40401 10.89714 250 ft 10 kts 235°
2026-05-06 12:54 45.40349 10.89637 249 ft 12 kts 225°
2026-05-06 12:55 45.40280 10.89538 248 ft 16 kts 226°
2026-05-06 12:55 45.40196 10.89416 247 ft 19 kts 225°
2026-05-06 12:55 45.40099 10.89274 246 ft 21 kts 225°
2026-05-06 12:55 45.39988 10.89113 245 ft 24 kts 225°
2026-05-06 12:56 45.39865 10.88935 243 ft 27 kts 225°
2026-05-06 12:56 45.39730 10.88739 242 ft 29 kts 226°
2026-05-06 12:56 45.39589 10.88533 240 ft 30 kts 225°
2026-05-06 12:56 45.39439 10.88315 238 ft 32 kts 225°
2026-05-06 12:57 45.39278 10.88081 237 ft 34 kts 225°
2026-05-06 12:57 45.39107 10.87833 235 ft 36 kts 225°
2026-05-06 12:57 45.38948 10.87602 233 ft 27 kts 226°
2026-05-06 12:57 45.38856 10.87505 232 ft 12 kts 168°
2026-05-06 12:58 45.38829 10.87528 234 ft 0 kts 136°
2026-05-06 12:58 45.38823 10.87537 233 ft 2 kts 136°
2026-05-06 12:59 45.38805 10.87561 232 ft 5 kts 136°
2026-05-06 12:59 45.38761 10.87625 232 ft 13 kts 127°
2026-05-06 12:59 45.38771 10.87691 238 ft 5 kts 43°
2026-05-06 12:59 45.38783 10.87708 233 ft 0 kts 46°
2026-05-06 13:00 45.38881 10.87851 234 ft 57 kts 46°
2026-05-06 13:00 45.39340 10.88519 238 ft 129 kts 45°
2026-05-06 13:00 45.40075 10.89527 553 ft 157 kts 41°
2026-05-06 13:00 45.40933 10.90624 1158 ft 175 kts 47°
2026-05-06 13:01 45.41525 10.92182 1788 ft 186 kts 78°
2026-05-06 13:01 45.41439 10.94126 2385 ft 211 kts 112°
2026-05-06 13:01 45.40607 10.95899 3230 ft 225 kts 133°
2026-05-06 13:01 45.39555 10.97640 4155 ft 241 kts 132°
2026-05-06 13:02 45.38507 10.99597 5063 ft 257 kts 129°
2026-05-06 13:02 45.37479 11.01761 6036 ft 270 kts 127°
2026-05-06 13:02 45.36502 11.04052 7018 ft 277 kts 125°
2026-05-06 13:02 45.35559 11.06506 7880 ft 289 kts 122°
2026-05-06 13:03 45.34641 11.09061 8889 ft 291 kts 123°
2026-05-06 13:03 45.33682 11.11613 9871 ft 295 kts 124°
2026-05-06 13:03 45.32688 11.14182 10782 ft 297 kts 124°
2026-05-06 13:03 45.31716 11.16808 11593 ft 308 kts 120°
2026-05-06 13:04 45.30794 11.19665 12036 ft 328 kts 120°
2026-05-06 13:04 45.29780 11.22685 12422 ft 347 kts 121°
2026-05-06 13:04 45.28702 11.25836 12949 ft 361 kts 121°
2026-05-06 13:04 45.27591 11.29068 13707 ft 366 kts 121°
2026-05-06 13:05 45.26465 11.32327 14404 ft 370 kts 121°
2026-05-06 13:05 45.25324 11.35621 15066 ft 374 kts 121°
2026-05-06 13:05 45.24111 11.38902 15708 ft 374 kts 129°
2026-05-06 13:05 45.22336 11.41511 16323 ft 366 kts 150°
2026-05-06 13:06 45.20081 11.43114 16905 ft 363 kts 165°
2026-05-06 13:06 45.17665 11.44267 17433 ft 369 kts 165°
2026-05-06 13:06 45.15256 11.45447 18049 ft 372 kts 165°
2026-05-06 13:06 45.12788 11.46642 18600 ft 376 kts 166°
2026-05-06 13:07 45.10305 11.47840 19140 ft 378 kts 166°
2026-05-06 13:07 45.07806 11.49042 19687 ft 381 kts 166°
2026-05-06 13:07 45.05288 11.50252 20222 ft 383 kts 166°
2026-05-06 13:07 45.02753 11.51468 20749 ft 386 kts 166°
2026-05-06 13:08 45.00202 11.52691 21285 ft 388 kts 166°
2026-05-06 13:08 44.97626 11.53922 21728 ft 393 kts 166°
2026-05-06 13:08 44.95017 11.55171 22190 ft 397 kts 166°
2026-05-06 13:08 44.92425 11.56408 22731 ft 399 kts 167°
2026-05-06 13:09 44.89782 11.57669 23239 ft 402 kts 167°
2026-05-06 13:09 44.87119 11.58939 23706 ft 405 kts 167°
2026-05-06 13:09 44.84439 11.60214 24172 ft 408 kts 167°
2026-05-06 13:09 44.81745 11.61520 24621 ft 412 kts 164°
2026-05-06 13:10 44.79130 11.63244 25086 ft 416 kts 160°
2026-05-06 13:10 44.76510 11.65029 25498 ft 420 kts 160°
2026-05-06 13:10 44.73873 11.66831 25928 ft 423 kts 160°
2026-05-06 13:10 44.71220 11.68644 26367 ft 425 kts 160°
2026-05-06 13:11 44.68550 11.70468 26785 ft 427 kts 160°
2026-05-06 13:11 44.65872 11.72298 27199 ft 430 kts 161°
2026-05-06 13:11 44.63175 11.74137 27616 ft 432 kts 161°
2026-05-06 13:11 44.60461 11.75986 28014 ft 434 kts 161°
2026-05-06 13:12 44.57735 11.77842 28313 ft 438 kts 160°
2026-05-06 13:12 44.54980 11.79715 28648 ft 441 kts 160°
2026-05-06 13:12 44.52211 11.81596 29048 ft 444 kts 161°
2026-05-06 13:12 44.49424 11.83487 29407 ft 446 kts 161°
2026-05-06 13:13 44.46621 11.85387 29795 ft 449 kts 161°
2026-05-06 13:13 44.43841 11.87270 30127 ft 451 kts 161°
2026-05-06 13:13 44.41017 11.89179 30521 ft 450 kts 161°
2026-05-06 13:13 44.38202 11.91082 30969 ft 449 kts 161°
2026-05-06 13:14 44.35396 11.92976 31377 ft 448 kts 161°
2026-05-06 13:14 44.32589 11.94868 31781 ft 447 kts 161°
2026-05-06 13:14 44.29784 11.96757 32216 ft 446 kts 161°
2026-05-06 13:14 44.26993 11.98634 32671 ft 445 kts 161°
2026-05-06 13:15 44.24205 12.00508 33113 ft 443 kts 161°
2026-05-06 13:15 44.21431 12.02370 33536 ft 442 kts 161°
2026-05-06 13:15 44.18655 12.04232 33953 ft 441 kts 161°
2026-05-06 13:15 44.15891 12.06083 34250 ft 441 kts 161°
2026-05-06 13:16 44.13123 12.07936 34563 ft 441 kts 161°
2026-05-06 13:16 44.10394 12.09761 34848 ft 442 kts 161°
2026-05-06 13:16 44.07618 12.11614 34914 ft 442 kts 161°
2026-05-06 13:17 44.02089 12.15300 34912 ft 440 kts 161°
2026-05-06 13:17 43.96568 12.18974 34899 ft 440 kts 161°
2026-05-06 13:18 43.91026 12.22654 34912 ft 443 kts 161°
2026-05-06 13:18 43.85469 12.26337 34892 ft 442 kts 161°
2026-05-06 13:19 43.79905 12.30015 34911 ft 443 kts 161°
2026-05-06 13:19 43.74378 12.33662 34891 ft 443 kts 161°
2026-05-06 13:20 43.68789 12.37343 34918 ft 446 kts 161°
2026-05-06 13:20 43.63189 12.41023 34913 ft 445 kts 161°
2026-05-06 13:21 43.57584 12.44698 34922 ft 446 kts 162°
2026-05-06 13:21 43.51973 12.48371 34916 ft 447 kts 161°
2026-05-06 13:22 43.46349 12.52044 34917 ft 447 kts 162°
2026-05-06 13:22 43.40767 12.55682 34938 ft 447 kts 162°
2026-05-06 13:23 43.35151 12.59334 34947 ft 447 kts 162°
2026-05-06 13:23 43.29534 12.62980 34943 ft 445 kts 162°
2026-05-06 13:24 43.23928 12.66611 34954 ft 446 kts 162°
2026-05-06 13:24 43.18325 12.70233 34957 ft 445 kts 162°
2026-05-06 13:25 43.12716 12.73851 34959 ft 445 kts 162°
2026-05-06 13:25 43.07157 12.77430 34947 ft 443 kts 162°
2026-05-06 13:26 43.01561 12.81025 34961 ft 445 kts 162°
2026-05-06 13:26 42.95956 12.84619 34947 ft 444 kts 162°
2026-05-06 13:27 42.90361 12.88199 34961 ft 444 kts 162°
2026-05-06 13:27 42.84766 12.91773 34964 ft 444 kts 162°
2026-05-06 13:28 42.79172 12.95336 34930 ft 443 kts 163°
2026-05-06 13:28 42.73574 12.98898 34998 ft 445 kts 162°
2026-05-06 13:29 42.68014 13.02428 34978 ft 444 kts 162°
2026-05-06 13:29 42.62396 13.05986 35005 ft 445 kts 162°
2026-05-06 13:30 42.56781 13.09536 35003 ft 445 kts 162°
2026-05-06 13:30 42.51166 13.13079 34995 ft 445 kts 162°
2026-05-06 13:31 42.45549 13.16617 34971 ft 446 kts 161°
2026-05-06 13:31 42.39921 13.20153 34985 ft 445 kts 162°
2026-05-06 13:32 42.34326 13.23666 34996 ft 446 kts 161°
2026-05-06 13:32 42.28700 13.27189 35001 ft 446 kts 162°
2026-05-06 13:33 42.23057 13.30717 34973 ft 446 kts 161°
2026-05-06 13:33 42.17450 13.34369 34982 ft 454 kts 153°
2026-05-06 13:33 42.14991 13.37101 35004 ft 462 kts 142°
2026-05-06 13:34 42.12628 13.40049 34957 ft 463 kts 143°
2026-05-06 13:34 42.07908 13.45954 34979 ft 464 kts 143°
2026-05-06 13:34 42.05554 13.48926 34628 ft 462 kts 143°
2026-05-06 13:35 42.03196 13.51903 33467 ft 470 kts 143°
2026-05-06 13:35 42.00795 13.54935 32560 ft 472 kts 143°
2026-05-06 13:35 41.98411 13.57941 31904 ft 469 kts 143°
2026-05-06 13:35 41.96029 13.60941 31037 ft 470 kts 143°
2026-05-06 13:36 41.93663 13.63920 30087 ft 474 kts 142°
2026-05-06 13:36 41.91268 13.66991 29054 ft 476 kts 142°
2026-05-06 13:36 41.88862 13.70042 28144 ft 475 kts 142°
2026-05-06 13:36 41.86446 13.73076 27237 ft 476 kts 142°
2026-05-06 13:37 41.84846 13.75078 26736 ft 473 kts 142°
2026-05-06 13:37 41.82449 13.78068 26050 ft 469 kts 142°
2026-05-06 13:37 41.80071 13.81033 25368 ft 465 kts 141°
2026-05-06 13:37 41.77705 13.83978 24626 ft 464 kts 141°
2026-05-06 13:38 41.75349 13.86908 23936 ft 461 kts 141°
2026-05-06 13:38 41.73003 13.89822 23173 ft 459 kts 141°
2026-05-06 13:38 41.70662 13.92727 22414 ft 457 kts 141°
2026-05-06 13:38 41.68335 13.95612 21708 ft 453 kts 141°
2026-05-06 13:39 41.66031 13.98467 20847 ft 452 kts 141°
2026-05-06 13:39 41.63718 14.01330 19959 ft 452 kts 140°
2026-05-06 13:39 41.61526 14.04308 19301 ft 448 kts 135°
2026-05-06 13:39 41.59448 14.07378 18858 ft 438 kts 135°
2026-05-06 13:40 41.56746 14.11314 18486 ft 422 kts 136°
2026-05-06 13:40 41.55440 14.13201 18315 ft 414 kts 136°
2026-05-06 13:40 41.53505 14.15988 18071 ft 403 kts 136°
2026-05-06 13:40 41.51642 14.18668 17864 ft 384 kts 136°
2026-05-06 13:41 41.49871 14.21213 17703 ft 365 kts 136°
2026-05-06 13:41 41.48183 14.23638 17535 ft 348 kts 137°
2026-05-06 13:41 41.46579 14.25956 17302 ft 334 kts 134°
2026-05-06 13:41 41.45117 14.28414 16350 ft 347 kts 132°
2026-05-06 13:42 41.43607 14.30977 15488 ft 357 kts 130°
2026-05-06 13:42 41.42035 14.33624 14649 ft 370 kts 131°
2026-05-06 13:42 41.40399 14.36351 13784 ft 382 kts 130°
2026-05-06 13:42 41.38709 14.39160 12839 ft 394 kts 131°
2026-05-06 13:43 41.36977 14.42033 12080 ft 400 kts 130°
2026-05-06 13:43 41.35255 14.44886 11529 ft 387 kts 131°
2026-05-06 13:43 41.33615 14.47602 11280 ft 365 kts 132°
2026-05-06 13:43 41.32072 14.50154 11078 ft 342 kts 132°
2026-05-06 13:44 41.30632 14.52535 10962 ft 318 kts 131°
2026-05-06 13:44 41.29290 14.54749 10823 ft 298 kts 131°
2026-05-06 13:44 41.28013 14.56852 10696 ft 288 kts 133°
2026-05-06 13:44 41.26779 14.58887 10542 ft 286 kts 133°
2026-05-06 13:45 41.25510 14.60974 10406 ft 293 kts 132°
2026-05-06 13:45 41.22937 14.65209 10112 ft 294 kts 132°
2026-05-06 13:45 41.21648 14.67328 9922 ft 294 kts 132°
2026-05-06 13:46 41.20357 14.69448 9584 ft 296 kts 132°
2026-05-06 13:46 41.19063 14.71573 9243 ft 295 kts 132°
2026-05-06 13:46 41.17771 14.73692 8922 ft 294 kts 132°
2026-05-06 13:46 41.16371 14.75584 8573 ft 288 kts 150°
2026-05-06 13:47 41.14546 14.76573 8244 ft 277 kts 176°
2026-05-06 13:47 41.12696 14.76445 7954 ft 267 kts 199°
2026-05-06 13:47 41.11069 14.75375 7693 ft 258 kts 220°
2026-05-06 13:47 41.09875 14.73670 7539 ft 249 kts 235°
2026-05-06 13:48 41.08880 14.71843 7419 ft 239 kts 236°
2026-05-06 13:48 41.07955 14.70057 7298 ft 231 kts 237°
2026-05-06 13:48 41.07083 14.68309 7142 ft 224 kts 238°
2026-05-06 13:48 41.06255 14.66610 7050 ft 215 kts 238°
2026-05-06 13:49 41.05458 14.64948 6839 ft 213 kts 239°
2026-05-06 13:49 41.04670 14.63290 6533 ft 214 kts 238°
2026-05-06 13:49 41.03878 14.61614 6234 ft 215 kts 239°
2026-05-06 13:49 41.03087 14.59930 5930 ft 216 kts 239°
2026-05-06 13:50 41.02288 14.58227 5561 ft 219 kts 238°
2026-05-06 13:50 41.01480 14.56508 5259 ft 220 kts 239°
2026-05-06 13:50 41.00683 14.54805 5080 ft 216 kts 238°
2026-05-06 13:50 40.99887 14.53103 4694 ft 222 kts 238°
2026-05-06 13:51 40.99075 14.51368 4293 ft 220 kts 237°
2026-05-06 13:51 40.98283 14.49677 4012 ft 214 kts 238°
2026-05-06 13:51 40.97503 14.48011 3671 ft 211 kts 238°
2026-05-06 13:51 40.96760 14.46428 3375 ft 195 kts 237°
2026-05-06 13:52 40.96071 14.44961 3093 ft 182 kts 237°
2026-05-06 13:52 40.95425 14.43587 2805 ft 172 kts 238°
2026-05-06 13:52 40.94790 14.42235 2609 ft 172 kts 237°
2026-05-06 13:52 40.94178 14.40931 2337 ft 160 kts 237°
2026-05-06 13:53 40.93605 14.39711 2094 ft 154 kts 238°
2026-05-06 13:53 40.93063 14.38551 1904 ft 142 kts 237°
2026-05-06 13:53 40.92543 14.37449 1692 ft 140 kts 238°
2026-05-06 13:53 40.92023 14.36343 1489 ft 143 kts 237°
2026-05-06 13:54 40.91504 14.35233 1213 ft 141 kts 236°
2026-05-06 13:54 40.90979 14.34131 1063 ft 143 kts 234°
2026-05-06 13:54 40.90467 14.33010 798 ft 141 kts 235°
2026-05-06 13:54 40.89940 14.31917 605 ft 142 kts 234°
2026-05-06 13:55 40.89426 14.30819 424 ft 140 kts 232°
2026-05-06 13:55 40.88943 14.29787 251 ft 123 kts 234°
2026-05-06 13:55 40.88568 14.29006 271 ft 69 kts 238°
2026-05-06 13:55 40.88383 14.28616 281 ft 30 kts 237°
2026-05-06 13:56 40.88235 14.28430 286 ft 28 kts 208°
2026-05-06 13:56 40.88119 14.28345 294 ft 6 kts 208°
2026-05-06 13:56 40.88083 14.28320 290 ft 6 kts 203°
2026-05-06 13:56 40.88068 14.28321 290 ft 2 kts 150°
2026-05-06 13:57 40.88054 14.28382 294 ft 12 kts 92°
2026-05-06 13:57 40.88045 14.28515 287 ft 17 kts 97°
2026-05-06 13:57 40.88064 14.28638 289 ft 11 kts 44°
2026-05-06 13:57 40.88124 14.28629 284 ft 7 kts 327°
2026-05-06 13:58 40.88143 14.28613 284 ft 0 kts 327°
2026-05-06 14:05 40.88142 14.28613 284 ft 0 kts 328°